Minneapolis Crystal, MN

9:08 AM CDT on March 30, 2017 (GMT -0500)
Crystal

Weather History for KMIC - August, 2013

Change the Weather History Date:

Thursday, August 22, 2013

  Actual Average Record
Temperature  
Mean Temperature 76 °F -  
Max Temperature 87 °F 77 °F 89 °F (2008)
Min Temperature 63 °F 57 °F 48 °F (2005)
Cooling Degree Days 12    
Growing Degree Days 26 (Base 50)    
Moisture  
Dew Point 50 °F    
Average Humidity 45    
Maximum Humidity 70    
Minimum Humidity 25    
Precipitation  
Precipitation 0.00 in - - ()
Sea Level Pressure  
Sea Level Pressure 30.08 in    
Wind  
Wind Speed 5 mph (NNE)    
Max Wind Speed 12 mph    
Max Gust Speed 18 mph    
Visibility 10 miles    
Events      
Averages and records for this station are not official NWS values.
T = Trace of Precipitation, MM = Missing Value Source: NWS Daily Summary

Daily Weather History Graph

Daily Weather History Graph

Search for Another Location

Airport or City:

Trip Planner

Search our weather history database for the weather conditions in past years. The results will help you decide how hot, cold, wet, or windy it might be!

Date:

Astronomy

Aug. 22, 2013 Rise Set
Actual Time 6:23 AM CDT 8:07 PM CDT
Civil Twilight 5:52 AM CDT 8:38 PM CDT
Nautical Twilight 5:14 AM CDT 9:16 PM CDT
Astronomical Twilight 4:33 AM CDT 9:57 PM CDT
Moon 8:43 PM CDT (8/22) 8:20 AM CDT (8/22)
Length of Visible Light 14h 46m
Length of Day
13h 44m
Waning Gibbous, 96% of the Moon is Illuminated
Aug 22
Waning Gibbous
Aug 28
Last Quarter
Sep 5
New
Sep 12
First Quarter
Sep 19
Full

Hourly Weather History & Observations

Time (CDT) Temp. Dew Point Humidity Pressure Visibility Wind Dir Wind Speed Gust Speed Precip Events Conditions
12:53 AM 70.0 °F 59.0 °F 68% 30.02 in 10.0 mi Calm Calm - N/A   Clear
1:53 AM 70.0 °F 57.9 °F 65% 30.03 in 10.0 mi North 3.5 mph - N/A   Clear
2:53 AM 68.0 °F 57.9 °F 70% 30.02 in 10.0 mi NNE 3.5 mph - N/A   Clear
3:53 AM 69.1 °F 55.9 °F 63% 30.05 in 10.0 mi North 4.6 mph - N/A   Mostly Cloudy
4:53 AM 68.0 °F 54.0 °F 61% 30.06 in 10.0 mi North 6.9 mph - N/A   Clear
5:53 AM 66.9 °F 50.0 °F 54% 30.06 in 10.0 mi NNE 8.1 mph - N/A   Clear
6:53 AM 68.0 °F 46.9 °F 47% 30.07 in 10.0 mi NNE 10.4 mph 17.3 mph N/A   Clear
7:53 AM 68.0 °F 46.9 °F 47% 30.11 in 10.0 mi NE 5.8 mph - N/A   Clear
8:53 AM 69.1 °F 48.0 °F 47% 30.12 in 10.0 mi NE 4.6 mph - N/A   Overcast
9:53 AM 73.9 °F 46.9 °F 38% 30.10 in 10.0 mi NE 11.5 mph 16.1 mph N/A   Partly Cloudy
10:53 AM 75.9 °F 48.0 °F 37% 30.11 in 10.0 mi ENE 10.4 mph - N/A   Clear
11:53 AM 80.1 °F 45.0 °F 29% 30.10 in 10.0 mi ENE 9.2 mph 18.4 mph N/A   Clear
12:53 PM 82.0 °F 45.0 °F 27% 30.09 in 10.0 mi NE 10.4 mph - N/A   Clear
1:53 PM 84.0 °F 46.9 °F 27% 30.09 in 10.0 mi North 6.9 mph - N/A   Clear
2:53 PM 86.0 °F 46.9 °F 26% 30.08 in 10.0 mi NNW 8.1 mph - N/A   Clear
3:53 PM 86.0 °F 46.9 °F 26% 30.07 in 10.0 mi NE 5.8 mph - N/A   Clear
4:53 PM 87.1 °F 46.9 °F 25% 30.06 in 10.0 mi NE 6.9 mph - N/A   Clear
5:53 PM 84.9 °F 45.0 °F 25% 30.06 in 10.0 mi North 4.6 mph - N/A   Clear
6:53 PM 82.9 °F 46.9 °F 28% 30.06 in 10.0 mi NNE 8.1 mph - N/A   Clear
7:53 PM 78.1 °F 48.9 °F 36% 30.07 in 10.0 mi Calm Calm - N/A   Clear
8:53 PM 71.1 °F 51.1 °F 49% 30.09 in 10.0 mi Calm Calm - N/A   Clear
9:53 PM 68.0 °F 52.0 °F 56% 30.10 in 10.0 mi NE 3.5 mph - N/A   Clear
10:53 PM 66.0 °F 51.1 °F 59% 30.10 in 10.0 mi Calm Calm - N/A   Mostly Cloudy
11:53 PM 63.0 °F 51.1 °F 65% 30.11 in 10.0 mi Calm Calm - N/A   Clear